Time,TemperatureF,DewpointF,PressureIn,WindDirection,WindDirectionDegrees,WindSpeedMPH,WindSpeedGustMPH,Humidity,HourlyPrecipIn,Conditions,Clouds,dailyrainin,SoftwareType,DateUTC
2013-01-08 00:01:00,36.0,23.8,27.28,ESE,112,0.0,0.0,61,0.00,,---,0.00,VWS V14.01,2013-01-08 07:01:00,
2013-01-08 00:06:00,36.0,23.8,27.28,ESE,112,0.0,0.0,61,0.00,,---,0.00,VWS V14.01,2013-01-08 07:06:00,
2013-01-08 00:11:00,36.1,24.4,27.31,ESE,112,0.0,0.0,62,0.00,,---,0.00,VWS V14.01,2013-01-08 07:11:00,
2013-01-08 00:16:00,36.1,24.4,27.31,ESE,112,3.6,3.6,62,0.00,,---,0.00,VWS V14.01,2013-01-08 07:16:00,
2013-01-08 00:21:00,36.5,24.7,27.31,SE,135,2.2,2.2,62,0.00,,---,0.00,VWS V14.01,2013-01-08 07:21:00,
2013-01-08 00:27:00,36.3,24.2,27.31,SE,135,0.0,0.0,61,0.00,,---,0.00,VWS V14.01,2013-01-08 07:27:00,
2013-01-08 00:32:00,36.1,24.4,27.31,ESE,112,0.0,0.0,62,0.00,,---,0.00,VWS V14.01,2013-01-08 07:32:00,
2013-01-08 00:37:00,36.5,24.7,27.31,ESE,112,3.1,4.0,62,0.00,,---,0.00,VWS V14.01,2013-01-08 07:37:00,
2013-01-08 00:42:00,36.7,24.5,27.31,East,90,3.1,3.1,61,0.00,,---,0.00,VWS V14.01,2013-01-08 07:42:00,
2013-01-08 00:47:00,36.9,24.3,27.31,ESE,112,2.2,2.7,60,0.00,,---,0.00,VWS V14.01,2013-01-08 07:47:00,
2013-01-08 00:52:00,36.7,23.7,27.31,SE,135,3.1,3.1,59,0.00,,---,0.00,VWS V14.01,2013-01-08 07:52:00,
2013-01-08 00:57:00,36.7,23.7,27.31,ESE,112,4.9,4.9,59,0.00,,---,0.00,VWS V14.01,2013-01-08 07:57:00,
2013-01-08 01:02:00,36.9,23.9,27.31,East,90,3.6,3.6,59,0.00,,---,0.00,VWS V14.01,2013-01-08 08:02:00,
2013-01-08 01:07:00,36.7,23.7,27.31,ESE,112,0.0,2.7,59,0.00,,---,0.00,VWS V14.01,2013-01-08 08:07:00,
2013-01-08 01:12:00,36.5,23.5,27.31,ESE,112,0.0,0.0,59,0.00,,---,0.00,VWS V14.01,2013-01-08 08:12:00,
2013-01-08 01:17:00,36.1,23.2,27.31,ESE,112,0.0,0.0,59,0.00,,---,0.00,VWS V14.01,2013-01-08 08:17:00,
2013-01-08 01:22:00,35.8,23.3,27.31,ESE,112,0.0,0.0,60,0.00,,---,0.00,VWS V14.01,2013-01-08 08:22:00,
2013-01-08 01:27:00,35.4,23.3,27.31,ESE,112,0.0,0.0,61,0.00,,---,0.00,VWS V14.01,2013-01-08 08:27:00,
2013-01-08 01:32:00,36.0,23.8,27.31,East,90,0.0,0.0,61,0.00,,---,0.00,VWS V14.01,2013-01-08 08:32:00,
2013-01-08 01:38:00,35.6,23.5,27.31,ESE,112,0.0,0.0,61,0.00,,---,0.00,VWS V14.01,2013-01-08 08:38:00,
2013-01-08 01:43:00,35.4,23.7,27.31,ESE,112,0.0,0.0,62,0.00,,---,0.00,VWS V14.01,2013-01-08 08:43:00,
2013-01-08 01:48:00,35.4,24.1,27.31,ESE,112,0.0,0.0,63,0.00,,---,0.00,VWS V14.01,2013-01-08 08:48:00,
2013-01-08 01:53:00,35.6,23.9,27.31,ESE,112,0.0,0.0,62,0.00,,---,0.00,VWS V14.01,2013-01-08 08:53:00,
2013-01-08 01:58:00,35.6,23.9,27.31,ESE,112,0.0,0.0,62,0.00,,---,0.00,VWS V14.01,2013-01-08 08:58:00,
2013-01-08 02:03:00,35.8,24.0,27.31,ESE,112,0.0,2.7,62,0.00,,---,0.00,VWS V14.01,2013-01-08 09:03:00,
2013-01-08 02:08:00,35.8,24.0,27.31,ESE,112,3.6,3.6,62,0.00,,---,0.00,VWS V14.01,2013-01-08 09:08:00,
2013-01-08 02:13:00,35.8,24.0,27.31,ESE,112,2.7,2.7,62,0.00,,---,0.00,VWS V14.01,2013-01-08 09:13:00,
2013-01-08 02:18:00,35.8,23.7,27.31,East,90,2.7,2.7,61,0.00,,---,0.00,VWS V14.01,2013-01-08 09:18:00,
2013-01-08 02:23:00,36.1,24.0,27.31,East,90,0.0,0.0,61,0.00,,---,0.00,VWS V14.01,2013-01-08 09:23:00,
2013-01-08 02:28:00,35.8,23.7,27.31,East,90,0.0,0.0,61,0.00,,---,0.00,VWS V14.01,2013-01-08 09:28:00,
2013-01-08 02:33:00,35.6,23.5,27.31,East,90,0.0,0.0,61,0.00,,---,0.00,VWS V14.01,2013-01-08 09:33:00,
2013-01-08 02:38:00,35.6,23.9,27.31,East,90,0.0,0.0,62,0.00,,---,0.00,VWS V14.01,2013-01-08 09:38:00,
2013-01-08 02:44:00,35.8,24.0,27.31,North,0,0.0,0.0,62,0.00,,---,0.00,VWS V14.01,2013-01-08 09:44:00,
2013-01-08 02:49:00,35.2,23.9,27.31,North,0,0.0,0.0,63,0.00,,---,0.00,VWS V14.01,2013-01-08 09:49:00,
2013-01-08 02:54:00,34.5,23.2,27.31,ENE,68,0.0,0.0,63,0.00,,---,0.00,VWS V14.01,2013-01-08 09:54:00,
2013-01-08 02:59:00,34.3,23.4,27.31,ENE,68,0.0,0.0,64,0.00,,---,0.00,VWS V14.01,2013-01-08 09:59:00,
2013-01-08 03:04:00,34.0,23.5,27.31,ENE,68,0.0,0.0,65,0.00,,---,0.00,VWS V14.01,2013-01-08 10:04:00,
2013-01-08 03:09:00,33.6,23.9,27.31,ENE,68,0.0,0.0,67,0.00,,---,0.00,VWS V14.01,2013-01-08 10:09:00,
2013-01-08 03:14:00,33.4,24.0,27.31,ENE,68,0.0,0.0,68,0.00,,---,0.00,VWS V14.01,2013-01-08 10:14:00,
2013-01-08 03:19:00,33.4,24.7,27.31,ENE,68,0.0,0.0,70,0.00,,---,0.00,VWS V14.01,2013-01-08 10:19:00,
2013-01-08 03:24:00,33.1,24.4,27.31,ENE,68,0.0,0.0,70,0.00,,---,0.00,VWS V14.01,2013-01-08 10:24:00,
2013-01-08 03:29:00,33.3,25.2,27.31,North,0,0.0,0.0,72,0.00,,---,0.00,VWS V14.01,2013-01-08 10:29:00,
2013-01-08 03:34:00,33.3,25.2,27.31,East,90,0.0,0.0,72,0.00,,---,0.00,VWS V14.01,2013-01-08 10:34:00,
2013-01-08 03:40:00,33.1,25.4,27.31,ESE,112,0.0,0.0,73,0.00,,---,0.00,VWS V14.01,2013-01-08 10:40:00,
2013-01-08 03:45:00,33.4,26.1,27.31,SSE,158,0.0,0.0,74,0.00,,---,0.00,VWS V14.01,2013-01-08 10:45:00,
2013-01-08 03:50:00,33.1,25.7,27.31,SSE,158,0.0,0.0,74,0.00,,---,0.00,VWS V14.01,2013-01-08 10:50:00,
2013-01-08 03:55:00,33.3,25.9,27.31,ESE,112,0.0,0.0,74,0.00,,---,0.00,VWS V14.01,2013-01-08 10:55:00,
2013-01-08 04:00:00,33.6,26.2,27.31,NNW,338,0.0,0.0,74,0.00,,---,0.00,VWS V14.01,2013-01-08 11:00:00,
2013-01-08 04:05:00,32.9,25.5,27.31,ENE,68,0.0,0.0,74,0.00,,---,0.00,VWS V14.01,2013-01-08 11:05:00,
2013-01-08 04:10:00,33.1,25.7,27.31,ESE,112,0.0,0.0,74,0.00,,---,0.00,VWS V14.01,2013-01-08 11:10:00,
2013-01-08 04:15:00,32.9,25.9,27.31,ESE,112,0.0,0.0,75,0.00,,---,0.00,VWS V14.01,2013-01-08 11:15:00,
2013-01-08 04:20:00,33.1,26.0,27.31,WNW,292,0.0,0.0,75,0.00,,---,0.00,VWS V14.01,2013-01-08 11:20:00,
2013-01-08 04:25:00,32.9,25.9,27.31,North,0,0.0,0.0,75,0.00,,---,0.00,VWS V14.01,2013-01-08 11:25:00,
2013-01-08 04:30:00,33.6,26.9,27.31,North,0,3.1,3.6,76,0.00,,---,0.00,VWS V14.01,2013-01-08 11:30:00,
2013-01-08 04:35:00,33.3,26.2,27.31,ENE,68,0.0,0.0,75,0.00,,---,0.00,VWS V14.01,2013-01-08 11:35:00,
2013-01-08 04:40:00,32.7,25.7,27.31,NE,45,0.0,0.0,75,0.00,,---,0.00,VWS V14.01,2013-01-08 11:40:00,
2013-01-08 04:46:00,32.5,25.5,27.31,NE,45,0.0,0.0,75,0.00,,---,0.00,VWS V14.01,2013-01-08 11:46:00,
2013-01-08 04:51:00,32.0,25.0,27.31,NE,45,0.0,0.0,75,0.00,,---,0.00,VWS V14.01,2013-01-08 11:51:00,
2013-01-08 04:56:00,31.6,25.0,27.31,ENE,68,0.0,0.0,76,0.00,,---,0.00,VWS V14.01,2013-01-08 11:56:00,
2013-01-08 05:01:00,32.0,25.6,27.31,South,180,2.2,2.7,77,0.00,,---,0.00,VWS V14.01,2013-01-08 12:01:00,
2013-01-08 05:06:00,31.8,25.4,27.31,South,180,2.7,2.7,77,0.00,,---,0.00,VWS V14.01,2013-01-08 12:06:00,
2013-01-08 05:11:00,31.6,25.6,27.31,South,180,0.0,0.0,78,0.00,,---,0.00,VWS V14.01,2013-01-08 12:11:00,
2013-01-08 05:16:00,31.8,25.8,27.31,ENE,68,0.0,0.0,78,0.00,,---,0.00,VWS V14.01,2013-01-08 12:16:00,
2013-01-08 05:21:00,31.6,25.9,27.31,ENE,68,0.0,0.0,79,0.00,,---,0.00,VWS V14.01,2013-01-08 12:21:00,
2013-01-08 05:26:00,31.8,26.1,27.31,ESE,112,0.0,0.0,79,0.00,,---,0.00,VWS V14.01,2013-01-08 12:26:00,
2013-01-08 05:31:00,31.5,25.7,27.31,ESE,112,0.0,0.0,79,0.00,,---,0.00,VWS V14.01,2013-01-08 12:31:00,
2013-01-08 05:36:00,31.1,25.7,27.31,ESE,112,0.0,0.0,80,0.00,,---,0.00,VWS V14.01,2013-01-08 12:36:00,
2013-01-08 05:41:00,31.5,26.0,27.31,ESE,112,3.6,3.6,80,0.00,,---,0.00,VWS V14.01,2013-01-08 12:41:00,
2013-01-08 05:46:00,32.0,26.8,27.31,ESE,112,2.7,2.7,81,0.00,,---,0.00,VWS V14.01,2013-01-08 12:46:00,
2013-01-08 05:52:00,32.0,26.8,27.31,ESE,112,0.0,0.0,81,0.00,,---,0.00,VWS V14.01,2013-01-08 12:52:00,
2013-01-08 05:57:00,31.8,26.7,27.31,ESE,112,0.0,0.0,81,0.00,,---,0.00,VWS V14.01,2013-01-08 12:57:00,
2013-01-08 06:02:00,32.0,26.8,27.31,NW,315,0.0,0.0,81,0.00,,---,0.00,VWS V14.01,2013-01-08 13:02:00,
2013-01-08 06:07:00,32.0,26.8,27.31,North,0,0.0,0.0,81,0.00,,---,0.00,VWS V14.01,2013-01-08 13:07:00,
2013-01-08 06:12:00,31.3,26.1,27.34,ENE,68,2.7,2.7,81,0.00,,---,0.00,VWS V14.01,2013-01-08 13:12:00,
2013-01-08 06:17:00,31.3,26.1,27.34,ENE,68,0.0,0.0,81,0.00,,---,0.00,VWS V14.01,2013-01-08 13:17:00,
2013-01-08 06:22:00,30.7,25.6,27.34,ENE,68,0.0,0.0,81,0.00,,---,0.00,VWS V14.01,2013-01-08 13:22:00,
2013-01-08 06:27:00,30.9,26.1,27.34,ENE,68,0.0,0.0,82,0.00,,---,0.00,VWS V14.01,2013-01-08 13:27:00,
2013-01-08 06:32:00,30.7,25.9,27.34,ENE,68,0.0,0.0,82,0.00,,---,0.00,VWS V14.01,2013-01-08 13:32:00,
2013-01-08 06:37:00,30.2,25.7,27.34,ENE,68,0.0,0.0,83,0.00,,---,0.00,VWS V14.01,2013-01-08 13:37:00,
2013-01-08 06:42:00,30.4,25.9,27.37,ENE,68,0.0,0.0,83,0.00,,---,0.00,VWS V14.01,2013-01-08 13:42:00,
2013-01-08 06:47:00,30.2,26.0,27.37,ENE,68,0.0,0.0,84,0.00,,---,0.00,VWS V14.01,2013-01-08 13:47:00,
2013-01-08 06:52:00,29.8,25.6,27.37,ESE,112,0.0,0.0,84,0.00,,---,0.00,VWS V14.01,2013-01-08 13:52:00,
2013-01-08 06:57:00,29.7,25.7,27.34,ESE,112,0.0,0.0,85,0.00,,---,0.00,VWS V14.01,2013-01-08 13:57:00,
2013-01-08 07:02:00,30.0,26.4,27.34,ESE,112,0.0,0.0,86,0.00,,---,0.00,VWS V14.01,2013-01-08 14:02:00,
2013-01-08 07:07:00,29.5,25.8,27.34,ESE,112,0.0,0.0,86,0.00,,---,0.00,VWS V14.01,2013-01-08 14:07:00,
2013-01-08 07:13:00,29.5,25.8,27.37,ESE,112,0.0,0.0,86,0.00,,---,0.00,VWS V14.01,2013-01-08 14:13:00,
2013-01-08 07:18:00,29.3,25.9,27.37,ESE,112,0.0,0.0,87,0.00,,---,0.00,VWS V14.01,2013-01-08 14:18:00,
2013-01-08 07:23:00,29.5,26.1,27.37,ESE,112,0.0,0.0,87,0.00,,---,0.00,VWS V14.01,2013-01-08 14:23:00,
2013-01-08 07:28:00,29.1,25.7,27.37,ESE,112,0.0,0.0,87,0.00,,---,0.00,VWS V14.01,2013-01-08 14:28:00,
2013-01-08 07:33:00,29.8,26.7,27.37,ESE,112,0.0,0.0,88,0.00,,---,0.00,VWS V14.01,2013-01-08 14:33:00,
2013-01-08 07:38:00,29.1,26.0,27.37,ESE,112,0.0,0.0,88,0.00,,---,0.00,VWS V14.01,2013-01-08 14:38:00,
2013-01-08 07:43:00,29.1,26.0,27.37,ESE,112,0.0,0.0,88,0.00,,---,0.00,VWS V14.01,2013-01-08 14:43:00,
2013-01-08 07:48:00,29.1,26.0,27.37,ESE,112,0.0,0.0,88,0.00,,---,0.00,VWS V14.01,2013-01-08 14:48:00,
2013-01-08 07:53:00,30.0,27.2,27.37,SSW,202,0.0,0.0,89,0.00,,---,0.00,VWS V14.01,2013-01-08 14:53:00,
2013-01-08 07:58:00,31.1,28.2,27.37,SW,225,0.0,0.0,89,0.00,,---,0.00,VWS V14.01,2013-01-08 14:58:00,
2013-01-08 08:03:00,33.1,30.2,27.37,West,270,0.0,0.0,89,0.00,,---,0.00,VWS V14.01,2013-01-08 15:03:00,
2013-01-08 08:08:00,33.8,30.6,27.37,ESE,112,2.2,2.2,88,0.00,,---,0.00,VWS V14.01,2013-01-08 15:08:00,
2013-01-08 08:13:00,35.4,31.9,27.40,ENE,68,3.6,3.6,87,0.00,,---,0.00,VWS V14.01,2013-01-08 15:13:00,
2013-01-08 08:19:00,36.0,31.6,27.40,North,0,2.7,3.1,84,0.00,,---,0.00,VWS V14.01,2013-01-08 15:19:00,
2013-01-08 08:24:00,36.5,30.6,27.40,ESE,112,2.2,2.7,79,0.00,,---,0.00,VWS V14.01,2013-01-08 15:24:00,
2013-01-08 08:29:00,37.0,30.2,27.40,NNE,22,2.7,3.6,76,0.00,,---,0.00,VWS V14.01,2013-01-08 15:29:00,
2013-01-08 08:34:00,37.6,29.0,27.40,NE,45,0.0,2.7,71,0.00,,---,0.00,VWS V14.01,2013-01-08 15:34:00,
2013-01-08 08:39:00,38.5,28.5,27.40,ESE,112,3.6,3.6,67,0.00,,---,0.00,VWS V14.01,2013-01-08 15:39:00,
2013-01-08 08:44:00,39.0,27.5,27.40,East,90,0.0,0.0,63,0.00,,---,0.00,VWS V14.01,2013-01-08 15:44:00,
2013-01-08 08:49:00,39.6,26.0,27.40,North,0,2.7,2.7,58,0.00,,---,0.00,VWS V14.01,2013-01-08 15:49:00,
2013-01-08 08:54:00,40.6,26.2,27.40,ESE,112,0.0,0.0,56,0.00,,---,0.00,VWS V14.01,2013-01-08 15:54:00,
2013-01-08 08:59:00,41.0,25.2,27.40,East,90,0.0,2.7,53,0.00,,---,0.00,VWS V14.01,2013-01-08 15:59:00,
2013-01-08 09:05:00,42.1,25.7,27.40,ESE,112,3.6,3.6,52,0.00,,---,0.00,VWS V14.01,2013-01-08 16:05:00,
2013-01-08 09:10:00,41.9,24.6,27.40,ESE,112,2.7,4.0,50,0.00,,---,0.00,VWS V14.01,2013-01-08 16:10:00,
2013-01-08 09:15:00,42.8,25.0,27.43,East,90,2.7,3.6,49,0.00,,---,0.00,VWS V14.01,2013-01-08 16:15:00,
2013-01-08 09:20:00,43.7,25.3,27.43,ESE,112,4.0,4.9,48,0.00,,---,0.00,VWS V14.01,2013-01-08 16:20:00,
2013-01-08 09:25:00,44.2,25.8,27.43,East,90,2.7,2.7,48,0.00,,---,0.00,VWS V14.01,2013-01-08 16:25:00,
2013-01-08 09:30:00,45.3,25.2,27.43,ESE,112,3.6,3.6,45,0.00,,---,0.00,VWS V14.01,2013-01-08 16:30:00,
2013-01-08 09:35:00,45.5,23.8,27.43,SE,135,3.1,4.0,42,0.00,,---,0.00,VWS V14.01,2013-01-08 16:35:00,
2013-01-08 09:40:00,46.8,24.9,27.43,ENE,68,2.7,2.7,42,0.00,,---,0.00,VWS V14.01,2013-01-08 16:40:00,
2013-01-08 09:46:00,47.3,24.8,27.43,SE,135,3.1,4.0,41,0.00,,---,0.00,VWS V14.01,2013-01-08 16:46:00,
2013-01-08 09:51:00,47.8,24.7,27.43,ESE,112,3.1,3.1,40,0.00,,---,0.00,VWS V14.01,2013-01-08 16:51:00,
2013-01-08 09:56:00,48.4,24.6,27.43,ESE,112,2.7,2.7,39,0.00,,---,0.00,VWS V14.01,2013-01-08 16:56:00,
2013-01-08 10:01:00,49.5,25.5,27.43,NNE,22,0.0,0.0,39,0.00,,---,0.00,VWS V14.01,2013-01-08 17:01:00,
2013-01-08 10:06:00,50.2,24.9,27.43,ESE,112,0.0,2.2,37,0.00,,---,0.00,VWS V14.01,2013-01-08 17:06:00,
2013-01-08 10:11:00,50.2,24.9,27.43,NNE,22,2.2,2.2,37,0.00,,---,0.00,VWS V14.01,2013-01-08 17:11:00,
2013-01-08 10:16:00,50.2,24.9,27.43,NNW,338,0.0,3.1,37,0.00,,---,0.00,VWS V14.01,2013-01-08 17:16:00,
2013-01-08 10:21:00,52.2,26.0,27.43,ESE,112,0.0,0.0,36,0.00,,---,0.00,VWS V14.01,2013-01-08 17:21:00,
2013-01-08 10:26:00,52.0,25.9,27.43,SE,135,2.2,2.2,36,0.00,,---,0.00,VWS V14.01,2013-01-08 17:26:00,
2013-01-08 10:31:00,52.3,26.2,27.43,South,180,2.7,3.6,36,0.00,,---,0.00,VWS V14.01,2013-01-08 17:31:00,
2013-01-08 10:36:00,52.0,25.2,27.43,WSW,248,2.7,2.7,35,0.00,,---,0.00,VWS V14.01,2013-01-08 17:36:00,
2013-01-08 10:42:00,52.5,25.7,27.43,ENE,68,0.0,0.0,35,0.00,,---,0.00,VWS V14.01,2013-01-08 17:42:00,
2013-01-08 10:47:00,53.2,25.6,27.43,WNW,292,0.0,2.2,34,0.00,,---,0.00,VWS V14.01,2013-01-08 17:47:00,
2013-01-08 10:52:00,53.8,25.4,27.43,ENE,68,0.0,0.0,33,0.00,,---,0.00,VWS V14.01,2013-01-08 17:52:00,
2013-01-08 10:57:00,55.4,26.0,27.43,SE,135,0.0,0.0,32,0.00,,---,0.00,VWS V14.01,2013-01-08 17:57:00,
2013-01-08 11:02:00,53.8,23.9,27.43,ESE,112,3.6,4.9,31,0.00,,---,0.00,VWS V14.01,2013-01-08 18:02:00,
2013-01-08 11:07:00,52.3,22.6,27.43,ESE,112,3.6,6.3,31,0.00,,---,0.00,VWS V14.01,2013-01-08 18:07:00,
2013-01-08 11:12:00,53.2,24.2,27.43,ESE,112,3.1,3.1,32,0.00,,---,0.00,VWS V14.01,2013-01-08 18:12:00,
2013-01-08 11:17:00,54.1,24.2,27.43,South,180,0.0,3.6,31,0.00,,---,0.00,VWS V14.01,2013-01-08 18:17:00,
2013-01-08 11:22:00,54.5,23.7,27.43,SW,225,2.2,2.2,30,0.00,,---,0.00,VWS V14.01,2013-01-08 18:22:00,
2013-01-08 11:27:00,55.4,23.7,27.43,ESE,112,0.0,2.7,29,0.00,,---,0.00,VWS V14.01,2013-01-08 18:27:00,
2013-01-08 11:32:00,56.3,24.5,27.43,East,90,0.0,0.0,29,0.00,,---,0.00,VWS V14.01,2013-01-08 18:32:00,
2013-01-08 11:37:00,54.3,22.8,27.43,WNW,292,3.1,3.1,29,0.00,,---,0.00,VWS V14.01,2013-01-08 18:37:00,
2013-01-08 11:42:00,54.3,23.6,27.43,NW,315,2.7,2.7,30,0.00,,---,0.00,VWS V14.01,2013-01-08 18:42:00,
2013-01-08 11:48:00,56.3,24.5,27.43,WNW,292,0.0,0.0,29,0.00,,---,0.00,VWS V14.01,2013-01-08 18:48:00,
2013-01-08 11:53:00,56.5,24.6,27.43,WSW,248,2.7,4.9,29,0.00,,---,0.00,VWS V14.01,2013-01-08 18:53:00,
2013-01-08 11:58:00,56.7,24.0,27.40,WSW,248,3.1,3.1,28,0.00,,---,0.00,VWS V14.01,2013-01-08 18:58:00,
2013-01-08 12:03:00,56.3,23.6,27.40,WSW,248,2.7,2.7,28,0.00,,---,0.00,VWS V14.01,2013-01-08 19:03:00,
2013-01-08 12:08:00,57.7,24.0,27.40,West,270,2.2,2.7,27,0.00,,---,0.00,VWS V14.01,2013-01-08 19:08:00,
2013-01-08 12:13:00,57.6,23.9,27.43,West,270,0.0,0.0,27,0.00,,---,0.00,VWS V14.01,2013-01-08 19:13:00,
2013-01-08 12:18:00,57.9,24.2,27.43,East,90,0.0,2.2,27,0.00,,---,0.00,VWS V14.01,2013-01-08 19:18:00,
2013-01-08 12:23:00,58.3,24.5,27.43,West,270,3.1,3.1,27,0.00,,---,0.00,VWS V14.01,2013-01-08 19:23:00,
2013-01-08 12:29:00,59.2,24.3,27.43,ESE,112,0.0,0.0,26,0.00,,---,0.00,VWS V14.01,2013-01-08 19:29:00,
2013-01-08 12:34:00,59.7,24.8,27.43,WNW,292,4.0,4.0,26,0.00,,---,0.00,VWS V14.01,2013-01-08 19:34:00,
2013-01-08 12:39:00,59.2,24.3,27.43,West,270,0.0,0.0,26,0.00,,---,0.00,VWS V14.01,2013-01-08 19:39:00,
2013-01-08 12:44:00,60.3,25.3,27.40,SSE,158,0.0,0.0,26,0.00,,---,0.00,VWS V14.01,2013-01-08 19:44:00,
2013-01-08 12:49:00,59.4,24.5,27.40,ESE,112,4.9,5.4,26,0.00,,---,0.00,VWS V14.01,2013-01-08 19:49:00,
2013-01-08 12:54:00,59.4,24.5,27.40,SE,135,0.0,2.7,26,0.00,,---,0.00,VWS V14.01,2013-01-08 19:54:00,
2013-01-08 12:59:00,58.8,24.0,27.40,ESE,112,6.3,6.3,26,0.00,,---,0.00,VWS V14.01,2013-01-08 19:59:00,
2013-01-08 13:04:00,59.4,24.5,27.40,NNE,22,2.7,3.6,26,0.00,,---,0.00,VWS V14.01,2013-01-08 20:04:00,
2013-01-08 13:09:00,60.6,24.6,27.40,East,90,0.0,0.0,25,0.00,,---,0.00,VWS V14.01,2013-01-08 20:09:00,
2013-01-08 13:14:00,59.4,23.6,27.40,South,180,0.0,0.0,25,0.00,,---,0.00,VWS V14.01,2013-01-08 20:14:00,
2013-01-08 13:19:00,59.7,23.9,27.40,West,270,2.7,3.1,25,0.00,,---,0.00,VWS V14.01,2013-01-08 20:19:00,
2013-01-08 13:25:00,59.9,24.0,27.40,WSW,248,2.7,2.7,25,0.00,,---,0.00,VWS V14.01,2013-01-08 20:25:00,
2013-01-08 13:30:00,60.6,24.6,27.40,WSW,248,2.7,5.8,25,0.00,,---,0.00,VWS V14.01,2013-01-08 20:30:00,
2013-01-08 13:35:00,59.9,24.0,27.40,West,270,2.7,2.7,25,0.00,,---,0.00,VWS V14.01,2013-01-08 20:35:00,
2013-01-08 13:40:00,61.7,25.5,27.40,East,90,2.7,2.7,25,0.00,,---,0.00,VWS V14.01,2013-01-08 20:40:00,
2013-01-08 13:45:00,62.1,25.9,27.40,ESE,112,0.0,0.0,25,0.00,,---,0.00,VWS V14.01,2013-01-08 20:45:00,
2013-01-08 13:50:00,62.2,26.0,27.40,SSE,158,3.1,3.1,25,0.00,,---,0.00,VWS V14.01,2013-01-08 20:50:00,
2013-01-08 13:55:00,60.4,24.5,27.40,SW,225,2.2,3.6,25,0.00,,---,0.00,VWS V14.01,2013-01-08 20:55:00,
2013-01-08 14:01:00,61.9,25.7,27.40,SSW,202,2.2,3.6,25,0.00,,---,0.00,VWS V14.01,2013-01-08 21:01:00,
2013-01-08 14:06:00,62.2,26.0,27.40,SW,225,0.0,0.0,25,0.00,,---,0.00,VWS V14.01,2013-01-08 21:06:00,
2013-01-08 14:11:00,63.5,26.1,27.40,SSE,158,0.0,2.2,24,0.00,,---,0.00,VWS V14.01,2013-01-08 21:11:00,
2013-01-08 14:16:00,62.4,25.2,27.40,SSW,202,2.7,2.7,24,0.00,,---,0.00,VWS V14.01,2013-01-08 21:16:00,
2013-01-08 14:21:00,62.2,25.0,27.40,SSE,158,4.0,5.4,24,0.00,,---,0.00,VWS V14.01,2013-01-08 21:21:00,
2013-01-08 14:26:00,62.2,25.0,27.40,West,270,2.7,4.0,24,0.00,,---,0.00,VWS V14.01,2013-01-08 21:26:00,
2013-01-08 14:31:00,60.8,24.8,27.40,WNW,292,2.2,3.1,25,0.00,,---,0.00,VWS V14.01,2013-01-08 21:31:00,
2013-01-08 14:37:00,61.3,25.2,27.40,ENE,68,2.2,2.2,25,0.00,,---,0.00,VWS V14.01,2013-01-08 21:37:00,
2013-01-08 14:42:00,62.4,25.2,27.40,East,90,3.1,3.1,24,0.00,,---,0.00,VWS V14.01,2013-01-08 21:42:00,
2013-01-08 14:47:00,62.1,24.9,27.40,SE,135,2.7,4.5,24,0.00,,---,0.00,VWS V14.01,2013-01-08 21:47:00,
2013-01-08 14:52:00,61.9,24.7,27.40,East,90,3.1,3.6,24,0.00,,---,0.00,VWS V14.01,2013-01-08 21:52:00,
2013-01-08 14:57:00,62.1,24.9,27.40,NE,45,0.0,0.0,24,0.00,,---,0.00,VWS V14.01,2013-01-08 21:57:00,
2013-01-08 15:02:00,63.5,26.1,27.40,ENE,68,0.0,0.0,24,0.00,,---,0.00,VWS V14.01,2013-01-08 22:02:00,
2013-01-08 15:07:00,61.3,24.3,27.40,WNW,292,3.6,4.0,24,0.00,,---,0.00,VWS V14.01,2013-01-08 22:07:00,
2013-01-08 15:12:00,61.9,24.7,27.37,WNW,292,0.0,4.0,24,0.00,,---,0.00,VWS V14.01,2013-01-08 22:12:00,
2013-01-08 15:18:00,63.9,26.4,27.37,WNW,292,2.2,2.2,24,0.00,,---,0.00,VWS V14.01,2013-01-08 22:18:00,
2013-01-08 15:23:00,63.3,25.9,27.37,WNW,292,2.7,2.7,24,0.00,,---,0.00,VWS V14.01,2013-01-08 22:23:00,
2013-01-08 15:28:00,64.2,26.7,27.40,ENE,68,0.0,0.0,24,0.00,,---,0.00,VWS V14.01,2013-01-08 22:28:00,
2013-01-08 15:33:00,64.0,26.5,27.40,WNW,292,2.2,4.0,24,0.00,,---,0.00,VWS V14.01,2013-01-08 22:33:00,
2013-01-08 15:38:00,62.6,25.3,27.40,SSW,202,2.7,3.6,24,0.00,,---,0.00,VWS V14.01,2013-01-08 22:38:00,
2013-01-08 15:43:00,62.8,25.5,27.40,North,0,2.2,3.6,24,0.00,,---,0.00,VWS V14.01,2013-01-08 22:43:00,
2013-01-08 15:48:00,63.1,25.8,27.40,ENE,68,0.0,2.2,24,0.00,,---,0.00,VWS V14.01,2013-01-08 22:48:00,
2013-01-08 15:53:00,62.4,25.2,27.40,WNW,292,2.7,3.1,24,0.00,,---,0.00,VWS V14.01,2013-01-08 22:53:00,
2013-01-08 15:59:00,63.1,25.8,27.40,NW,315,0.0,0.0,24,0.00,,---,0.00,VWS V14.01,2013-01-08 22:59:00,
2013-01-08 16:04:00,63.7,26.2,27.40,NE,45,2.2,2.7,24,0.00,,---,0.00,VWS V14.01,2013-01-08 23:04:00,
2013-01-08 16:09:00,63.9,26.4,27.40,North,0,0.0,2.2,24,0.00,,---,0.00,VWS V14.01,2013-01-08 23:09:00,
2013-01-08 16:14:00,63.5,26.1,27.37,ENE,68,0.0,0.0,24,0.00,,---,0.00,VWS V14.01,2013-01-08 23:14:00,
2013-01-08 16:19:00,63.3,25.9,27.37,NNE,22,2.2,2.2,24,0.00,,---,0.00,VWS V14.01,2013-01-08 23:19:00,
2013-01-08 16:24:00,64.0,26.5,27.37,NNW,338,0.0,0.0,24,0.00,,---,0.00,VWS V14.01,2013-01-08 23:24:00,
2013-01-08 16:29:00,63.3,25.9,27.37,NW,315,0.0,0.0,24,0.00,,---,0.00,VWS V14.01,2013-01-08 23:29:00,
2013-01-08 16:34:00,63.9,26.4,27.37,SE,135,0.0,0.0,24,0.00,,---,0.00,VWS V14.01,2013-01-08 23:34:00,
2013-01-08 16:39:00,63.5,26.1,27.37,North,0,0.0,0.0,24,0.00,,---,0.00,VWS V14.01,2013-01-08 23:39:00,
2013-01-08 16:44:00,63.3,25.9,27.40,North,0,0.0,0.0,24,0.00,,---,0.00,VWS V14.01,2013-01-08 23:44:00,
2013-01-08 16:49:00,63.0,25.6,27.40,WNW,292,0.0,0.0,24,0.00,,---,0.00,VWS V14.01,2013-01-08 23:49:00,
2013-01-08 16:54:00,61.5,24.4,27.40,North,0,3.1,4.9,24,0.00,,---,0.00,VWS V14.01,2013-01-08 23:54:00,
2013-01-08 16:59:00,60.6,23.6,27.37,North,0,3.1,4.0,24,0.00,,---,0.00,VWS V14.01,2013-01-08 23:59:00,
2013-01-08 17:04:00,61.0,24.0,27.37,NNE,22,2.2,2.2,24,0.00,,---,0.00,VWS V14.01,2013-01-09 00:04:00,
2013-01-08 17:09:00,60.6,23.6,27.37,North,0,0.0,0.0,24,0.00,,---,0.00,VWS V14.01,2013-01-09 00:09:00,
2013-01-08 17:14:00,59.5,22.7,27.40,North,0,0.0,0.0,24,0.00,,---,0.00,VWS V14.01,2013-01-09 00:14:00,
2013-01-08 17:19:00,58.8,23.1,27.40,North,0,4.9,4.9,25,0.00,,---,0.00,VWS V14.01,2013-01-09 00:19:00,
2013-01-08 17:25:00,57.9,22.3,27.40,SW,225,0.0,0.0,25,0.00,,---,0.00,VWS V14.01,2013-01-09 00:25:00,
2013-01-08 17:30:00,56.8,21.4,27.37,WNW,292,0.0,0.0,25,0.00,,---,0.00,VWS V14.01,2013-01-09 00:30:00,
2013-01-08 17:35:00,55.9,21.6,27.37,SW,225,0.0,0.0,26,0.00,,---,0.00,VWS V14.01,2013-01-09 00:35:00,
2013-01-08 17:40:00,54.7,20.5,27.37,SW,225,0.0,0.0,26,0.00,,---,0.00,VWS V14.01,2013-01-09 00:40:00,
2013-01-08 17:45:00,53.6,20.5,27.37,SE,135,0.0,0.0,27,0.00,,---,0.00,VWS V14.01,2013-01-09 00:45:00,
2013-01-08 17:50:00,52.5,20.4,27.37,SE,135,0.0,0.0,28,0.00,,---,0.00,VWS V14.01,2013-01-09 00:50:00,
2013-01-08 17:55:00,51.8,20.6,27.37,SE,135,0.0,0.0,29,0.00,,---,0.00,VWS V14.01,2013-01-09 00:55:00,
2013-01-08 18:00:00,51.1,22.3,27.40,SE,135,0.0,0.0,32,0.00,,---,0.00,VWS V14.01,2013-01-09 01:00:00,
2013-01-08 18:05:00,50.4,23.1,27.40,SE,135,0.0,0.0,34,0.00,,---,0.00,VWS V14.01,2013-01-09 01:05:00,
2013-01-08 18:10:00,50.0,23.4,27.40,SE,135,0.0,0.0,35,0.00,,---,0.00,VWS V14.01,2013-01-09 01:10:00,
2013-01-08 18:15:00,49.6,23.8,27.40,SE,135,0.0,0.0,36,0.00,,---,0.00,VWS V14.01,2013-01-09 01:15:00,
2013-01-08 18:20:00,49.1,23.3,27.40,SE,135,0.0,0.0,36,0.00,,---,0.00,VWS V14.01,2013-01-09 01:20:00,
2013-01-08 18:25:00,48.9,22.5,27.40,SE,135,0.0,0.0,35,0.00,,---,0.00,VWS V14.01,2013-01-09 01:25:00,
2013-01-08 18:30:00,48.7,20.9,27.40,WSW,248,0.0,0.0,33,0.00,,---,0.00,VWS V14.01,2013-01-09 01:30:00,
2013-01-08 18:35:00,48.9,21.1,27.40,WNW,292,0.0,0.0,33,0.00,,---,0.00,VWS V14.01,2013-01-09 01:35:00,
2013-01-08 18:40:00,48.6,20.8,27.40,WSW,248,0.0,0.0,33,0.00,,---,0.00,VWS V14.01,2013-01-09 01:40:00,
2013-01-08 18:45:00,48.0,21.0,27.40,West,270,0.0,0.0,34,0.00,,---,0.00,VWS V14.01,2013-01-09 01:45:00,
2013-01-08 18:50:00,48.2,20.5,27.40,NW,315,0.0,0.0,33,0.00,,---,0.00,VWS V14.01,2013-01-09 01:50:00,
2013-01-08 18:55:00,47.5,19.8,27.40,NNE,22,0.0,0.0,33,0.00,,---,0.00,VWS V14.01,2013-01-09 01:55:00,
2013-01-08 19:00:00,47.5,19.8,27.43,NNE,22,0.0,0.0,33,0.00,,---,0.00,VWS V14.01,2013-01-09 02:00:00,
2013-01-08 19:05:00,47.5,19.8,27.43,NNW,338,0.0,0.0,33,0.00,,---,0.00,VWS V14.01,2013-01-09 02:05:00,
2013-01-08 19:10:00,47.5,20.5,27.43,West,270,0.0,0.0,34,0.00,,---,0.00,VWS V14.01,2013-01-09 02:10:00,
2013-01-08 19:15:00,47.3,19.7,27.43,NNE,22,0.0,0.0,33,0.00,,---,0.00,VWS V14.01,2013-01-09 02:15:00,
2013-01-08 19:20:00,47.1,20.2,27.43,NW,315,0.0,0.0,34,0.00,,---,0.00,VWS V14.01,2013-01-09 02:20:00,
2013-01-08 19:25:00,47.3,20.4,27.43,West,270,0.0,0.0,34,0.00,,---,0.00,VWS V14.01,2013-01-09 02:25:00,
2013-01-08 19:30:00,48.0,21.0,27.43,West,270,0.0,0.0,34,0.00,,---,0.00,VWS V14.01,2013-01-09 02:30:00,
2013-01-08 19:35:00,47.1,20.2,27.43,NE,45,0.0,0.0,34,0.00,,---,0.00,VWS V14.01,2013-01-09 02:35:00,
2013-01-08 19:40:00,46.8,20.6,27.43,ENE,68,0.0,0.0,35,0.00,,---,0.00,VWS V14.01,2013-01-09 02:40:00,
2013-01-08 19:45:00,46.6,20.4,27.43,ENE,68,0.0,0.0,35,0.00,,---,0.00,VWS V14.01,2013-01-09 02:45:00,
2013-01-08 19:50:00,46.8,19.9,27.43,North,0,0.0,0.0,34,0.00,,---,0.00,VWS V14.01,2013-01-09 02:50:00,
2013-01-08 19:55:00,46.6,19.7,27.43,ENE,68,0.0,0.0,34,0.00,,---,0.00,VWS V14.01,2013-01-09 02:55:00,
2013-01-08 20:00:00,46.0,19.9,27.43,East,90,0.0,0.0,35,0.00,,---,0.00,VWS V14.01,2013-01-09 03:00:00,
2013-01-08 20:05:00,45.9,21.1,27.43,East,90,0.0,0.0,37,0.00,,---,0.00,VWS V14.01,2013-01-09 03:05:00,
2013-01-08 20:10:00,45.9,21.1,27.43,WSW,248,0.0,0.0,37,0.00,,---,0.00,VWS V14.01,2013-01-09 03:10:00,
2013-01-08 20:15:00,45.9,21.1,27.43,SSW,202,0.0,3.1,37,0.00,,---,0.00,VWS V14.01,2013-01-09 03:15:00,
2013-01-08 20:20:00,45.9,21.1,27.43,SSW,202,0.0,0.0,37,0.00,,---,0.00,VWS V14.01,2013-01-09 03:20:00,
2013-01-08 20:25:00,46.0,20.6,27.43,SSE,158,0.0,0.0,36,0.00,,---,0.00,VWS V14.01,2013-01-09 03:25:00,
2013-01-08 20:30:00,46.0,20.6,27.43,SSW,202,4.9,4.9,36,0.00,,---,0.00,VWS V14.01,2013-01-09 03:30:00,
2013-01-08 20:36:00,46.6,20.4,27.43,SSW,202,2.7,2.7,35,0.00,,---,0.00,VWS V14.01,2013-01-09 03:36:00,
2013-01-08 20:41:00,46.6,19.7,27.43,ENE,68,2.2,2.7,34,0.00,,---,0.00,VWS V14.01,2013-01-09 03:41:00,
2013-01-08 20:46:00,46.6,20.4,27.43,East,90,0.0,3.6,35,0.00,,---,0.00,VWS V14.01,2013-01-09 03:46:00,
2013-01-08 20:51:00,46.0,20.6,27.43,East,90,2.2,2.7,36,0.00,,---,0.00,VWS V14.01,2013-01-09 03:51:00,
2013-01-08 20:56:00,46.4,20.2,27.43,ENE,68,0.0,0.0,35,0.00,,---,0.00,VWS V14.01,2013-01-09 03:56:00,
2013-01-08 21:01:00,45.9,20.4,27.43,SW,225,0.0,0.0,36,0.00,,---,0.00,VWS V14.01,2013-01-09 04:01:00,
2013-01-08 21:06:00,45.5,20.8,27.43,SSW,202,0.0,0.0,37,0.00,,---,0.00,VWS V14.01,2013-01-09 04:06:00,
2013-01-08 21:11:00,45.1,20.4,27.43,WSW,248,0.0,0.0,37,0.00,,---,0.00,VWS V14.01,2013-01-09 04:11:00,
2013-01-08 21:16:00,44.6,20.6,27.43,WSW,248,0.0,0.0,38,0.00,,---,0.00,VWS V14.01,2013-01-09 04:16:00,
2013-01-08 21:21:00,45.1,20.4,27.43,WNW,292,0.0,0.0,37,0.00,,---,0.00,VWS V14.01,2013-01-09 04:21:00,
2013-01-08 21:26:00,44.2,20.3,27.46,WNW,292,0.0,0.0,38,0.00,,---,0.00,VWS V14.01,2013-01-09 04:26:00,
2013-01-08 21:31:00,43.7,19.8,27.46,ESE,112,0.0,0.0,38,0.00,,---,0.00,VWS V14.01,2013-01-09 04:31:00,
2013-01-08 21:36:00,43.3,20.1,27.46,SSW,202,0.0,0.0,39,0.00,,---,0.00,VWS V14.01,2013-01-09 04:36:00,
2013-01-08 21:41:00,43.0,19.7,27.46,WSW,248,0.0,0.0,39,0.00,,---,0.00,VWS V14.01,2013-01-09 04:41:00,
2013-01-08 21:46:00,42.1,19.5,27.46,SE,135,0.0,0.0,40,0.00,,---,0.00,VWS V14.01,2013-01-09 04:46:00,
2013-01-08 21:51:00,41.7,20.3,27.46,SE,135,0.0,2.7,42,0.00,,---,0.00,VWS V14.01,2013-01-09 04:51:00,
2013-01-08 21:56:00,41.2,20.4,27.46,SSE,158,0.0,0.0,43,0.00,,---,0.00,VWS V14.01,2013-01-09 04:56:00,
2013-01-08 22:00:00,40.8,20.6,27.46,SSE,158,0.0,0.0,44,0.00,,---,0.00,VWS V14.01,2013-01-09 05:00:00,
2013-01-08 22:02:00,40.5,20.3,27.46,SSE,158,0.0,0.0,44,0.00,,---,0.00,VWS V14.01,2013-01-09 05:02:00,
2013-01-08 22:04:00,40.5,19.7,27.46,SSE,158,0.0,0.0,43,0.00,,---,0.00,VWS V14.01,2013-01-09 05:04:00,
2013-01-08 22:09:00,40.3,20.6,27.46,SSE,158,0.0,0.0,45,0.00,,---,0.00,VWS V14.01,2013-01-09 05:09:00,
2013-01-08 22:14:00,39.9,20.3,27.46,SSE,158,0.0,0.0,45,0.00,,---,0.00,VWS V14.01,2013-01-09 05:14:00,
2013-01-08 22:19:00,39.6,21.0,27.46,SSE,158,0.0,0.0,47,0.00,,---,0.00,VWS V14.01,2013-01-09 05:19:00,
2013-01-08 22:24:00,39.4,21.8,27.46,SSE,158,0.0,0.0,49,0.00,,---,0.00,VWS V14.01,2013-01-09 05:24:00,
2013-01-08 22:29:00,39.2,21.7,27.46,East,90,0.0,0.0,49,0.00,,---,0.00,VWS V14.01,2013-01-09 05:29:00,
2013-01-08 22:34:00,39.4,21.8,27.46,ESE,112,3.1,4.0,49,0.00,,---,0.00,VWS V14.01,2013-01-09 05:34:00,
2013-01-08 22:39:00,40.3,22.7,27.46,ESE,112,2.7,4.0,49,0.00,,---,0.00,VWS V14.01,2013-01-09 05:39:00,
2013-01-08 22:44:00,40.3,22.2,27.46,ESE,112,2.7,2.7,48,0.00,,---,0.00,VWS V14.01,2013-01-09 05:44:00,
2013-01-08 22:49:00,39.9,21.8,27.46,ESE,112,0.0,0.0,48,0.00,,---,0.00,VWS V14.01,2013-01-09 05:49:00,
2013-01-08 22:54:00,39.6,22.0,27.46,ESE,112,0.0,0.0,49,0.00,,---,0.00,VWS V14.01,2013-01-09 05:54:00,
2013-01-08 22:59:00,39.0,21.5,27.46,ESE,112,0.0,0.0,49,0.00,,---,0.00,VWS V14.01,2013-01-09 05:59:00,
2013-01-08 23:04:00,39.0,22.0,27.46,ESE,112,0.0,0.0,50,0.00,,---,0.00,VWS V14.01,2013-01-09 06:04:00,
2013-01-08 23:09:00,38.8,22.3,27.46,East,90,0.0,0.0,51,0.00,,---,0.00,VWS V14.01,2013-01-09 06:09:00,
2013-01-08 23:14:00,38.8,22.3,27.46,East,90,0.0,0.0,51,0.00,,---,0.00,VWS V14.01,2013-01-09 06:14:00,
2013-01-08 23:19:00,38.8,21.8,27.46,ESE,112,0.0,0.0,50,0.00,,---,0.00,VWS V14.01,2013-01-09 06:19:00,
2013-01-08 23:24:00,39.2,21.7,27.46,ESE,112,3.1,3.1,49,0.00,,---,0.00,VWS V14.01,2013-01-09 06:24:00,
2013-01-08 23:29:00,39.7,21.7,27.49,ESE,112,3.1,3.1,48,0.00,,---,0.00,VWS V14.01,2013-01-09 06:29:00,
2013-01-08 23:34:00,39.6,21.5,27.49,ESE,112,0.0,0.0,48,0.00,,---,0.00,VWS V14.01,2013-01-09 06:34:00,
2013-01-08 23:39:00,39.7,21.2,27.49,SE,135,0.0,2.7,47,0.00,,---,0.00,VWS V14.01,2013-01-09 06:39:00,
2013-01-08 23:44:00,39.2,20.7,27.46,SSE,158,0.0,0.0,47,0.00,,---,0.00,VWS V14.01,2013-01-09 06:44:00,
2013-01-08 23:49:00,39.2,21.2,27.46,WSW,248,0.0,0.0,48,0.00,,---,0.00,VWS V14.01,2013-01-09 06:49:00,
2013-01-08 23:54:00,38.8,21.3,27.46,WSW,248,0.0,0.0,49,0.00,,---,0.00,VWS V14.01,2013-01-09 06:54:00,
2013-01-08 23:59:00,37.9,21.0,27.49,SE,135,0.0,0.0,50,0.00,,---,0.00,VWS V14.01,2013-01-09 06:59:00,